Terug naar catalogus

IRIDIUM 33 DEB

ActiefPO
NORAD 34366·DEBRIS·🇺🇸 United States

Gelanceerd Sep 14, 1997 vanaf Baikonur Cosmodrome

Loading…

Volgende Passages (komende 24 uur)

TLE

VersSource: Space-Track

Epoch: Sep 14, 2026, 00:58 UTC

1 34366U 97051FJ  26257.04039225  .00002536  00000-0  56671-3 0  9995
2 34366  86.3644 289.3214 0017115 295.3028  91.5889 14.56342814921862

Volg IRIDIUM 33 DEB in realtime met AllMySat

Download on the App Store